NOAA 16 DEB

Satellite information

Favourite Embed

Satellite Type and Status

DEBRISIN ORBIT

Key statistics

Satellite NOAA 16 DEB at a glance.

Uptime

9159

Days in orbit

Revolutions

≈ 14.2

Per day

Orbit

SSO

Sun Synchronous Orbit

Inclination

98.9

Latest

Satellite identification and parameters

Extended collection of information and parameters for NOAA 16 DEB.

Object identification

Identified? True

Debris? True

Object name: NOAA 16 DEB

International designator: 2000-055FU

Object number (NORAD): 41268

Object ID (CCSDS): 41268

Country: UNITED STATES OF AMERICA (US)

Current information (Y/N): Y

RCS size: SMALL

Orbital parameters

Period: 101.288 minutes

Inclination: 98.8638 deg

SMA: 7197.777 km

Apoapsis: 838.818 km

Periapsis: 800.467 km

RAAN: 18.8261 deg

Eccentricy: 0.00266405

Argument of periapsis: 237.0608 deg

Mean anomaly: 122.8007 deg

Mean motion: 14.21690756 rev/day

Mean motion (dot): 0.00006287 rev/day2

B* drag term: 0.0028701679 1/REarth

Two-line elements (TLE)

Creation date: Oct. 18, 2025, 2:17 a.m.

Reference frame: TEME

Reference center: EARTH

Epoch: Oct. 17, 2025, 10:54 a.m. UTC

TLE line 0: 0 NOAA 16 DEB

TLE line 1: 1 41268U 00055FU 25290.45459605 .00006287 00000-0 28702-2 0 9991

TLE line 2: 2 41268 98.8638 18.8261 0026641 237.0608 122.8007 14.21690756505300

Live tracking on map

Real-time ground track for satellite NOAA 16 DEB.

In-orbit conjunctions

A list of the most updated potential collisions computed for object NOAA 16 DEB.

Target Orbit TCA Probability of collision Miss distance Type
SL-16 R/B LEO 2025-06-16 16:11:03 0.0002873054 125.0 (m) ROCKET BODY
CZ-6A R/B LEO 2025-06-04 22:02:31 0.0001237709 57.0 (m) ROCKET BODY

Associated space launch

The NOAA K, L and M POES satellites begin the fifth generation of improved environmental monitoring in support of NOAA missions. The instrument payload has significant improvements and additions/deletions. The instrument changes have effected the spacecraft subsystems and data formats.

NOAA 16 DEB was lifted into orbit during the mission ‘Titan II SLV | NOAA 16’, on board a Titan II SLV space rocket.

The launch took place on Sept. 21, 2000, 10:22 a.m. from Space Launch Complex 4W.

For more information about the launch, click the button.

Launch to space Titan II SLV | NOAA 16
Titan II SLV | NOAA 16

Agency: N/A

Status: Launch Successful

Launch date: Sept. 21, 2000, 10:22 a.m. UTC

Rocket: Titan II SLV

Launch pad: Space Launch Complex 4W

Location: Vandenberg SFB, CA, USA

...

Latest news about this satellite

There are no fresh news available about this satellite. Check back as we update our databases every day.


Newsletter sign-up

Weekly statistics, charts and insights to help you stay on top of the space industry.